Regional Weather Roundup
Issued by NWS

Home | Current Version | Previous Version | Graphics & Text | Print | Product List | Glossary Off
Versions: 1 2 3 4 5 6 7 8 9 10 11 12 13 14 15 16 17 18 19 20 21 22 23 24 25 26 27 28 29 30 31 32 33 34 35 36 37 38 39 40 41 42 43 44 45 46 47 48 49 50

000
ASUS43 KMKX 011100
RWRWI

WISCONSIN REGIONAL WEATHER ROUNDUP
NATIONAL WEATHER SERVICE MILWAUKEE/SULLIVAN WI
500 AM CST SUN FEB 01 2015

NOTE: "FAIR" INDICATES FEW OR NO CLOUDS BELOW 12,000 FEET WITH NO
SIGNIFICANT WEATHER AND/OR OBSTRUCTIONS TO VISIBILITY.

WIZ001-002-006>008-014>016-023>028-011200-
NORTHWEST WISCONSIN

CITY           SKY/WX    TMP DP  RH WIND       PRES   REMARKS
SUPERIOR ARPT  LGT SNOW  11   8  87 NE14G20   30.36S WCI  -5
ASHLAND        CLOUDY     9   0  67 E8        30.36R WCI  -3
HAYWARD        CLOUDY     8  -3  61 E13G22    30.28R WCI  -8
SIREN          CLOUDY    13   6  75 NE8G17    30.26F WCI   2
CUMBERLAND     CLOUDY    12   1  62 NE14      30.21S WCI  -3
RICE LAKE      CLOUDY    12   3  65 NE12      30.23F WCI  -2
CHETEK         CLOUDY    12   1  63 MISG      30.22F
LADYSMITH      CLOUDY    10   2  69 NE14G23   30.25R WCI  -6
EAU CLAIRE     LGT SNOW  14   8  77 NE14      30.19S WCI  -1
MENOMONIE      CLOUDY    15   9  76 NE12G17   30.20S HAZE    WCI   2
NEW RICHMOND   CLOUDY    14   5  67 NE13G23   30.20S WCI   0
OSCEOLA        CLOUDY    16   5  62 NE18G24   30.24F WCI  -1
$$

WIZ003>005-009-010-017-018-011200-
NORTH CENTRAL WISCONSIN

CITY           SKY/WX    TMP DP  RH WIND       PRES   REMARKS
MANITOWISH WTR CLOUDY     2  -3  77 NE8       30.25S WCI -11
ARBOR VITAE    CLOUDY     5  -1  76 NE5       30.24S WCI  -4
WOODRUFF       CLOUDY     5  -1  76 NE5       30.24S WCI  -4
RHINELANDER    CLOUDY     5  -2  72 NE12      30.21F WCI -11
EAGLE RIVER    CLOUDY     4  -2  75 NE8       30.24S WCI -10
LAND O LAKES   CLOUDY     4  -1  79 N6        30.25F WCI  -7
PHILLIPS       CLOUDY     4  -2  76 NE12      30.23S WCI -12
TOMAHAWK       CLOUDY     6  -1  73 NE5       30.23F WCI  -3
MEDFORD        CLOUDY     9   1  70 NE14      30.18F WCI  -7
MERRILL        CLOUDY     9   1  71 NE8       30.22S WCI  -4
$$

WIZ029-030-035-036-043>047-011200-
CENTRAL WISCONSIN

CITY           SKY/WX    TMP DP  RH WIND       PRES   REMARKS
WAUSAU         CLOUDY    10   1  67 NE8G16    30.20F WCI  -2
MOSINEE        LGT SNOW  10   7  85 NE17      30.21S WCI  -7
MARSHFIELD     LGT SNOW  11   6  81 E20G26    30.17F WCI  -7
STEVENS POINT  LGT SNOW  10   5  81 NE12      30.20F WCI  -5
WAUPACA        LGT SNOW  14   9  79 NE12G17   30.22F WCI   0
WAUTOMA        LGT SNOW  12   9  85 NE15G22   30.18F WCI  -4
WISC RAPIDS    LGT SNOW  12   6  77 NE13G24   30.19F WCI  -3
CAMP DOUGLAS   LGT SNOW  14  12  92 NE14G21   30.15F FOG     WCI  -1
$$

WIZ011>013-019>022-031-037>040-048>050-011200-
NORTHEAST WISCONSIN

CITY           SKY/WX    TMP DP  RH WIND       PRES   REMARKS
ANTIGO         CLOUDY     8   2  78 NE16      30.20S WCI -10
SHAWANO        CLOUDY    14   6  68 NE13G18   30.26S WCI   0
OCONTO         CLOUDY    12   5  74 MISG      30.27S
STURGEON BAY   CLOUDY    12   3  67 NE15      30.27S WCI  -4
GREEN BAY      LGT SNOW  14   7  73 NE20      30.24S WCI  -3
MANITOWOC      LGT SNOW  16  14  93 N10       30.21R FOG     WCI   3
APPLETON       NOT AVBL
CLINTONVILLE   LGT SNOW  12   5  73 NE10G18   30.25S WCI  -1
OSHKOSH        LGT SNOW  14   9  80 NE22G28   30.18F VSB 1   WCI  -4
$$

WIZ032>034-041-042-053>061-011200-
SOUTHWEST WISCONSIN

CITY           SKY/WX    TMP DP  RH WIND       PRES   REMARKS
LA CROSSE      LGT SNOW  20  16  84 E7        30.12F FOG     WCI  11
SPARTA         LGT SNOW  16  11  83 E17G24    30.15S WCI   0
VIROQUA        CLOUDY    17  14  90 E16G29    30.05S WCI   1
BOSCOBEL       LGT SNOW  20  16  84 NE8G23    30.06F VSB 1   WCI  10
PRAIRIE DU CHI LGT SNOW  24  19  80 E17G26    30.02F WCI  11
PLATTEVILLE    CLOUDY    25  23  93 NE21G36   29.98S VSB 3/4 WCI  11
$$

WIZ056-057-062-063-064-067-068-011200-
SOUTH CENTRAL WISCONSIN

CITY           SKY/WX    TMP DP  RH WIND       PRES   REMARKS
REEDSBURG      LGT SNOW  15  11  87 NE14      30.12S WCI   0
BARABOO/DELLS  LGT SNOW  14  10  85 NE13G18   30.12S VSB 3/4 WCI   0
LONE ROCK      NOT AVBL
MINERAL POINT  LGT SNOW  23  19  86 NE21G30   30.00S WCI   8
MADISON        LGT SNOW  17  13  84 NE21G28   30.08F VSB 1   WCI   0
MIDDLETON      CLOUDY    19  15  84 NE16G25   30.09F WCI   4
WATERTOWN      LGT SNOW  21  19  93 NE12G20   30.10S WCI   9
MONROE         LGT SNOW  27  27 100 NE21      30.00F WCI  13
JANESVILLE     LGT SNOW  28  28 100 NE20      30.03F WCI  15
$$

WIZ051-052-058>065-066-070>072-011200-
SOUTHEAST WISCONSIN

CITY           SKY/WX    TMP DP  RH WIND       PRES   REMARKS
MILWAUKEE      LGT SNOW  25  21  85 NE23G30   30.11F VSB 1   WCI  10
WAUKESHA       LGT SNOW  23  21  93 NE17G24   30.11F WCI   9
MILWAUKEE/TIMM LGT SNOW  25  21  86 NE13G21   30.14R WCI  13
RACINE         LGT SNOW  27  23  85 NE20G29   30.10F FOG     WCI  13
BURLINGTON     LGT SNOW  25  23  94 NE16      30.07F WCI  12
KENOSHA        LGT SNOW  28  26  92 NE20G26   30.07F VSB 3/4 WCI  15
FOND DU LAC    LGT SNOW  15  10  80 NE17G28   30.17F WCI  -1
SHEBOYGAN      LGT SNOW  17  13  84 N10       30.17S VSB 1   WCI   5
WEST BEND      LGT SNOW  19  16  86 NE8       30.14R WCI   9
JUNEAU         LGT SNOW  16  13  88 N16       30.13F WCI   0
$$

LSZ147-162-011200-
LAKE SUPERIOR

STATION/POSITION TIME  TEMP    WIND        PRES    WAVE
                       AIR SEA DIR/SP/G            HT/PER
                 (UTC) (F)     (DEG/KT/KT) (MB)    (FT/S)
DEVILS ISLAND    1000   11      60/ 15/ 20 1031.1S
PORT WING        1000   13      70/ 14/ 19 1028.4
SAXON HARBOR     1000    9      CALM  / 11 1028.4F
$$

LMZ867-665-643>646-011200-
LAKE MICHIGAN

STATION/POSITION TIME  TEMP    WIND        PRES    WAVE
                       AIR SEA DIR/SP/G            HT/PER
                 (UTC) (F)     (DEG/KT/KT) (MB)    (FT/S)
NORTHPORT PIER   1028   14      20/ 18/ 22 1026.1S
SISTER BAY       0913   14      30/ 14/ 18   N/A
KEWAUNEE LAKESHO 1000   15      10/ 12/ 16 1022.9F
SHEBOYGAN LAKESH 1000   23      50/ 28/ 30 1022.6F
PORT WASHINGTON  1040   26      60/ 20/ 26 1022.0S
MILWAUKEE LAKESH 1000   26      50/ 25/ 29   N/A
KENOSHA   LAKESH 1000   30      70/ 19/ 22 1019.0F
$$

TC  - TEMPERATURE IN CELSIUS
VSB - VISIBILITY IN STATUTE MILES
WCI - WIND CHILL INDEX
HX  - HEAT INDEX



USA.gov is the U.S. government's official web portal to all federal, state and local government web resources and services.